TimeMDT,TemperatureF,Dew PointF,Humidity,Sea Level PressureIn,VisibilityMPH,Wind Direction,Wind SpeedMPH,Gust SpeedMPH,PrecipitationIn,Events,Conditions,WindDirDegrees,DateUTC
12:16 AM,32.0,28.4,87,30.15,-9999.0,Calm,Calm,-,N/A,Snow,Light Snow,0,2013-03-12 06:16:00
12:36 AM,30.2,28.4,93,30.14,-9999.0,Calm,Calm,-,N/A,Snow,Light Snow,0,2013-03-12 06:36:00
12:56 AM,30.2,28.4,93,30.14,-9999.0,Calm,Calm,-,N/A,,Overcast,0,2013-03-12 06:56:00
1:16 AM,30.2,26.6,86,30.14,-9999.0,Calm,Calm,-,N/A,,Unknown,0,2013-03-12 07:16:00
1:35 AM,32.0,28.4,87,30.14,-9999.0,Calm,Calm,-,N/A,Snow,Light Snow,0,2013-03-12 07:35:00
1:55 AM,32.0,26.6,80,30.15,-9999.0,West,3.5,-,N/A,Snow,Light Snow,270,2013-03-12 07:55:00
2:16 AM,32.0,28.4,87,30.15,-9999.0,Calm,Calm,-,N/A,Snow,Light Snow,0,2013-03-12 08:16:00
2:56 AM,30.2,28.4,93,30.15,-9999.0,Calm,Calm,-,N/A,Snow,Light Snow,0,2013-03-12 08:56:00
3:16 AM,30.2,28.4,93,30.14,-9999.0,Calm,Calm,-,N/A,,Overcast,0,2013-03-12 09:16:00
3:36 AM,30.2,28.4,93,30.14,-9999.0,Calm,Calm,-,N/A,,Overcast,0,2013-03-12 09:36:00
3:56 AM,30.2,26.6,86,30.14,-9999.0,Calm,Calm,-,N/A,Snow,Light Snow,0,2013-03-12 09:56:00
4:16 AM,32.0,26.6,80,30.14,-9999.0,Calm,Calm,-,N/A,,Overcast,0,2013-03-12 10:16:00
4:36 AM,32.0,26.6,80,30.15,-9999.0,WSW,6.9,-,N/A,,Overcast,250,2013-03-12 10:36:00
4:56 AM,32.0,26.6,80,30.16,-9999.0,WSW,8.1,-,N/A,,Overcast,250,2013-03-12 10:56:00
5:16 AM,32.0,26.6,80,30.17,-9999.0,WSW,10.4,-,N/A,,Overcast,240,2013-03-12 11:16:00
5:36 AM,32.0,26.6,80,30.18,-9999.0,WSW,9.2,-,N/A,,Overcast,250,2013-03-12 11:36:00
5:56 AM,32.0,26.6,80,30.19,-9999.0,WSW,8.1,-,N/A,,Overcast,240,2013-03-12 11:56:00
6:16 AM,32.0,26.6,80,30.19,-9999.0,WSW,9.2,-,N/A,Snow,Light Snow,250,2013-03-12 12:16:00
6:36 AM,32.0,26.6,80,30.19,-9999.0,West,4.6,-,N/A,,Overcast,270,2013-03-12 12:36:00
6:56 AM,32.0,24.8,75,30.19,-9999.0,WSW,9.2,-,N/A,,Overcast,240,2013-03-12 12:56:00
7:16 AM,32.0,24.8,75,30.20,-9999.0,West,8.1,-,N/A,Snow,Light Snow,260,2013-03-12 13:16:00
7:56 AM,32.0,24.8,75,30.22,-9999.0,WSW,9.2,-,N/A,,Overcast,240,2013-03-12 13:56:00
8:16 AM,32.0,26.6,80,30.23,-9999.0,WSW,9.2,-,N/A,,Overcast,240,2013-03-12 14:16:00
8:36 AM,32.0,26.6,80,30.24,-9999.0,WSW,6.9,-,N/A,Snow,Light Snow,250,2013-03-12 14:36:00
8:56 AM,33.8,26.6,75,30.24,-9999.0,WSW,8.1,-,N/A,,Overcast,240,2013-03-12 14:56:00
9:15 AM,33.8,28.4,81,30.25,-9999.0,WSW,10.4,-,N/A,,Overcast,250,2013-03-12 15:15:00
9:36 AM,33.8,28.4,81,30.25,-9999.0,WSW,8.1,-,N/A,,Overcast,250,2013-03-12 15:36:00
9:56 AM,33.8,26.6,75,30.26,-9999.0,West,9.2,-,N/A,,Overcast,260,2013-03-12 15:56:00
10:16 AM,35.6,28.4,75,30.27,-9999.0,West,11.5,-,N/A,,Overcast,260,2013-03-12 16:16:00
10:36 AM,33.8,26.6,75,30.26,-9999.0,West,4.6,-,N/A,,Overcast,270,2013-03-12 16:36:00
10:56 AM,35.6,26.6,70,30.26,-9999.0,WSW,6.9,-,N/A,,Overcast,240,2013-03-12 16:56:00
11:16 AM,35.6,26.6,70,30.26,-9999.0,West,5.8,-,N/A,,Overcast,260,2013-03-12 17:16:00
11:36 AM,37.4,24.8,60,30.26,-9999.0,West,6.9,-,N/A,,Overcast,260,2013-03-12 17:36:00
11:56 AM,37.4,26.6,65,30.26,-9999.0,WSW,5.8,-,N/A,,Overcast,250,2013-03-12 17:56:00
12:16 PM,37.4,24.8,60,30.26,-9999.0,ENE,3.5,-,N/A,,Overcast,60,2013-03-12 18:16:00
12:36 PM,39.2,24.8,56,30.27,-9999.0,East,4.6,-,N/A,,Overcast,90,2013-03-12 18:36:00
12:56 PM,37.4,24.8,60,30.27,-9999.0,East,5.8,-,N/A,,Overcast,90,2013-03-12 18:56:00
1:15 PM,37.4,24.8,60,30.27,-9999.0,ENE,6.9,-,N/A,,Overcast,70,2013-03-12 19:15:00
1:36 PM,37.4,26.6,65,30.27,-9999.0,ESE,5.8,-,N/A,,Overcast,110,2013-03-12 19:36:00
1:56 PM,39.2,24.8,56,30.27,-9999.0,ENE,4.6,-,N/A,,Overcast,70,2013-03-12 19:56:00
2:16 PM,39.2,23.0,52,30.26,-9999.0,West,3.5,-,N/A,,Overcast,260,2013-03-12 20:16:00
2:36 PM,41.0,23.0,49,30.26,-9999.0,NW,9.2,-,N/A,,Overcast,310,2013-03-12 20:36:00
2:56 PM,42.8,21.2,42,30.25,-9999.0,NW,6.9,-,N/A,,Mostly Cloudy,310,2013-03-12 20:56:00
3:16 PM,41.0,19.4,42,30.24,-9999.0,WNW,10.4,-,N/A,,Scattered Clouds,300,2013-03-12 21:16:00
3:36 PM,41.0,21.2,45,30.25,-9999.0,NNW,6.9,-,N/A,,Mostly Cloudy,340,2013-03-12 21:36:00
3:55 PM,41.0,21.2,45,30.24,-9999.0,North,4.6,-,N/A,,Overcast,350,2013-03-12 21:55:00
4:16 PM,41.0,21.2,45,30.25,-9999.0,NNW,4.6,-,N/A,,Overcast,340,2013-03-12 22:16:00
4:35 PM,41.0,21.2,45,30.25,-9999.0,NNW,9.2,-,N/A,,Overcast,340,2013-03-12 22:35:00
4:56 PM,41.0,21.2,45,30.26,-9999.0,NNW,8.1,-,N/A,,Overcast,340,2013-03-12 22:56:00
5:16 PM,41.0,23.0,49,30.25,-9999.0,NNW,6.9,-,N/A,,Mostly Cloudy,340,2013-03-12 23:16:00
5:35 PM,41.0,23.0,49,30.25,-9999.0,NNW,9.2,-,N/A,,Mostly Cloudy,340,2013-03-12 23:35:00
5:56 PM,39.2,23.0,52,30.26,-9999.0,North,11.5,-,N/A,,Scattered Clouds,350,2013-03-12 23:56:00
6:16 PM,39.2,23.0,52,30.27,-9999.0,NNW,9.2,16.1,N/A,,Mostly Cloudy,330,2013-03-13 00:16:00
6:35 PM,37.4,23.0,56,30.27,-9999.0,NW,6.9,-,N/A,,Overcast,320,2013-03-13 00:35:00
6:55 PM,37.4,24.8,60,30.27,-9999.0,WNW,5.8,-,N/A,,Overcast,300,2013-03-13 00:55:00
7:16 PM,37.4,23.0,56,30.27,-9999.0,WNW,6.9,-,N/A,,Mostly Cloudy,290,2013-03-13 01:16:00
7:36 PM,37.4,23.0,56,30.28,-9999.0,SSW,3.5,-,N/A,,Mostly Cloudy,200,2013-03-13 01:36:00
7:56 PM,35.6,23.0,60,30.27,-9999.0,ESE,4.6,-,N/A,,Scattered Clouds,120,2013-03-13 01:56:00
8:16 PM,35.6,26.6,70,30.28,-9999.0,ESE,10.4,-,N/A,,Clear,110,2013-03-13 02:16:00
8:35 PM,35.6,24.8,65,30.29,-9999.0,East,6.9,-,N/A,,Clear,90,2013-03-13 02:35:00
8:56 PM,33.8,24.8,70,30.29,-9999.0,East,5.8,-,N/A,,Clear,90,2013-03-13 02:56:00
9:16 PM,33.8,24.8,70,30.30,-9999.0,Calm,Calm,-,N/A,,Clear,0,2013-03-13 03:16:00
9:35 PM,32.0,23.0,69,30.30,-9999.0,Calm,Calm,-,N/A,,Clear,0,2013-03-13 03:35:00
9:55 PM,32.0,24.8,75,30.31,-9999.0,Calm,Calm,-,N/A,,Clear,0,2013-03-13 03:55:00
10:16 PM,30.2,23.0,75,30.32,-9999.0,ESE,4.6,-,N/A,,Clear,110,2013-03-13 04:16:00
10:36 PM,30.2,23.0,75,30.32,-9999.0,SE,3.5,-,N/A,,Clear,130,2013-03-13 04:36:00
10:56 PM,30.2,23.0,75,30.32,-9999.0,ENE,3.5,-,N/A,,Clear,60,2013-03-13 04:56:00
11:56 PM,30.2,23.0,75,30.34,-9999.0,Calm,Calm,-,N/A,,Scattered Clouds,0,2013-03-13 05:56:00